Погода в Порденоне

Италия     45°58′23″N   12°38′43″E
темп.,
°C
ветер,
м/с
пор.,
м/с
влажн.,
%
обл.,
%
осадки,
мм/ч
давл.,
гПа
погр.,
м
2 марта, вт
вт201:00+7св22600 0.0 103426
04:00+6св12580 0.0 103422
07:00+6ссв22590 0.0 103430
10:00+11св11430 0.0 1034250
13:00+14юз21400 0.0 1033677
16:00+14юз22430 0.0 1032585
19:00+10з12590 0.0 103322
22:00+9ссз01690 0.0 103422
3 марта, ср
ср301:00+7св22730 0.0 103422
04:00+6всв11750 0.0 103322
07:00+5св11750 0.0 103322
10:00+10юв11580 0.0 1031243
13:00+13ююз22510 0.0 1030623
16:00+14юз11490 0.0 1028777
19:00+9ю12721 0.0 102923
22:00+8в117961 0.0 102922
4 марта, чт
чт401:00+7св118336 0.0 102722
04:00+6св22851 0.0 102623
07:00+5св228818 0.0 102524
10:00+9в226959 0.0 1023354
13:00+12ююв125670 0.0 10201040
16:00+12ююв225699 0.0 10181083
19:00+10ююв2373100 0.0 1018158
22:00+9вюв1279100 0.0 101888
5 марта, пт
пт501:00+8св2283100 0.0 1017127
04:00+8св2482100 0.0 1016159
07:00+7ссв0084100 0.0 101622
10:00+10в1168100 0.0 1015485
13:00+13ююв215795 0.0 10141061
16:00+13ю115791 0.0 10141113
19:00+11ююв237295 0.1 1016135
22:00+9св3482100 0.2 1019194
6 марта, сб
сб601:00+9всв5882100 0.4 1021426
04:00+6вюв486898 0.6 1023567
07:00+5в266199 0.6 1027750
10:00+6юв335797 0.0 1028771
13:00+8ююв335176 0.0 10281237
16:00+8юв224585 0.0 10281457
19:00+5вюв235676 0.0 102963
22:00+3в12593 0.0 103170